Cross City, FL

7:59 AM EDT on September 26, 2017 (GMT -0400)
Cross City

Weather History for KCTY - March, 2013

Change the Weather History Date:

Thursday, March 28, 2013

  Actual Average Record
Temperature  
Mean Temperature 51 °F 64 °F  
Max Temperature 71 °F 78 °F 86 °F (2016)
Min Temperature 31 °F 51 °F 31 °F (2013)
Degree Days  
Heating Degree Days 14 3  
Month to date heating degree days 266 127  
Since 1 July heating degree days 1076 1247  
Cooling Degree Days 0 2  
Month to date cooling degree days 22 38  
Year to date cooling degree days 118 65  
Moisture  
Dew Point 32 °F    
Average Humidity 55    
Maximum Humidity 92    
Minimum Humidity 20    
Precipitation  
Precipitation 0.00 in 0.15 in 2.60 in (2009)
Month to date precipitation 1.20 3.83  
Year to date precipitation 4.71 11.14  
Sea Level Pressure  
Sea Level Pressure 30.28 in    
Wind  
Wind Speed 4 mph (NNW)    
Max Wind Speed 13 mph    
Max Gust Speed 20 mph    
T = Trace of Precipitation, MM = Missing Value Source: NWS Daily Summary

Daily Weather History Graph

Daily Weather History Graph

Search for Another Location

Airport or City:

Trip Planner

Search our weather history database for the weather conditions in past years. The results will help you decide how hot, cold, wet, or windy it might be!

Date:

Astronomy

Mar. 28, 2013 Rise Set
Actual Time 7:26 AM EDT 7:48 PM EDT
Civil Twilight 7:02 AM EDT 8:12 PM EDT
Nautical Twilight 6:34 AM EDT 8:40 PM EDT
Astronomical Twilight 6:06 AM EDT 9:08 PM EDT
Moon 9:28 PM EDT (3/28) 8:02 AM EDT (3/28)
Length of Visible Light 13h 10m
Length of Day
12h 22m
Full, 98% of the Moon is Illuminated
Mar 28
Full
Apr 3
Last Quarter
Apr 10
New
Apr 18
First Quarter
Apr 25
Full

Hourly Weather History & Observations

Time (EDT) Temp. Windchill Dew Point Humidity Pressure Visibility Wind Dir Wind Speed Gust Speed Precip Events Conditions
12:53 AM 37.0 °F - 32.0 °F 82% 30.29 in - Calm Calm - N/A   Unknown
1:53 AM 36.0 °F - 33.1 °F 89% 30.29 in - Calm Calm - N/A   Unknown
2:53 AM 35.1 °F - 32.0 °F 89% 30.28 in - Calm Calm - N/A   Unknown
3:53 AM 34.0 °F - 30.9 °F 89% 30.27 in - Calm Calm - N/A   Unknown
4:53 AM 33.1 °F - 28.9 °F 85% 30.27 in - Calm Calm - N/A   Unknown
5:53 AM 32.0 °F - 28.9 °F 88% 30.28 in - Calm Calm - N/A   Unknown
6:53 AM 32.0 °F - 28.0 °F 85% 30.29 in - Calm Calm - N/A   Unknown
7:53 AM 32.0 °F - 28.9 °F 88% 30.30 in - Calm Calm - N/A   Unknown
8:53 AM 46.0 °F 43.1 °F 34.0 °F 63% 30.32 in - North 5.8 mph - N/A   Unknown
9:53 AM 55.0 °F - 33.1 °F 43% 30.33 in - NNE 10.4 mph - N/A   Unknown
10:53 AM 60.1 °F - 30.9 °F 33% 30.34 in - North 9.2 mph - N/A   Unknown
11:53 AM 63.0 °F - 28.9 °F 28% 30.33 in - North 10.4 mph - N/A   Unknown
12:53 PM 64.9 °F - 28.9 °F 26% 30.31 in - WNW 3.5 mph - N/A   Unknown
1:53 PM 68.0 °F - 28.9 °F 23% 30.29 in - Variable 6.9 mph - N/A   Unknown
2:53 PM 70.0 °F - 30.0 °F 23% 30.26 in - North 10.4 mph 19.6 mph N/A   Unknown
3:53 PM 71.1 °F - 28.9 °F 21% 30.23 in - North 9.2 mph 17.3 mph N/A   Unknown
4:53 PM 71.1 °F - 28.0 °F 20% 30.22 in - Variable 4.6 mph - N/A   Unknown
5:53 PM 70.0 °F - 28.0 °F 21% 30.22 in - Variable 4.6 mph - N/A   Unknown
6:53 PM 69.1 °F - 28.9 °F 22% 30.23 in - Variable 3.5 mph - N/A   Unknown
7:53 PM 60.1 °F - 33.1 °F 36% 30.25 in - Calm Calm - N/A   Unknown
8:53 PM 57.0 °F - 41.0 °F 55% 30.27 in - Calm Calm - N/A   Unknown
9:53 PM 53.1 °F - 43.0 °F 69% 30.28 in - NW 4.6 mph - N/A   Unknown
10:53 PM 53.1 °F - 43.0 °F 69% 30.31 in - NW 4.6 mph - N/A   Unknown
11:53 PM 46.9 °F - 42.1 °F 83% 30.32 in - Calm Calm - N/A   Unknown